Kosmos-2334

operational
NORAD ID: 24304 Int'l Des: 1996-052 Owner: VMFR Country: RU
LEOCIRCULARPOLAR

About Kosmos-2334

Description loading...

Live Position

Loading 3D Globe...

Upcoming Passes

Altitude History

Altitude vs Time

uPlot chart will show altitude changes over time

Two-Line Element Set

1 24304U 96052A 26062.37083609 .00000068 00000-0 56052-4 0 9993
2 24304 82.9380 159.0760 0029655 194.0323 231.8336 13.73802566478109
Epoch: Mar 3, 2026 • Age: 19 hours

Current Status

Altitude 1009.9 km
Velocity 7.34 km/s
Sub-Earth Point 8.06°N, 71.58°E
Launch Date Sep 5, 1996
Age 29.4 years
Type other

Technical Details

Classification Payload
Mass 800.00 kg
Dry Mass 800.00 kg
Total Mass 800.00 kg
Length 5.00 m
Diameter 2.10 m
Span 17.00 m
Shape Cyl + Ant
Manufacturer POL
Bus Type KAUR-1 11F627
Phase Status Unknown Transfer Status
Owner/State VMFR/RU

Large Constellations

Loading constellations...